User: anonymous
Location: Clinton NY
(43.0598°N, 75.3602°W)
Time: 11:55:32
(UTC-04:00)
Language:

Iridium 11 - Orbit

View from above orbital plane
View from above orbital plane
View from above satellite
View from above satellite

Ground track
Ground track

The orbit data is extracted from the following two-line orbital elements,

1 25578U 98074B   14212.43475640  .00000239  00000-0  78249-4 0  9637
2 25578 086.3994 335.2424 0002437 110.8287 332.3008 14.34219490826657
Epoch (UTC): 31 July 2014 10:26:02
Eccentricity: 0.0002437
inclination: 86.3994°
perigee height: 776 km
apogee height: 779 km
right ascension of ascending node: 335.2424°
argument of perigee: 110.8287°
revolutions per day: 14.34219490
mean anomaly at epoch: 332.3008°
orbit number at epoch: 82665

The dashed part of the orbit path shows where the satellite is in the earth's shadow,  

DLR